CAPE
1514 1475 1454 1416 1385 1304 1246 1312 1383 1480 1748 2008 2069 2150 2179 2174 2240 2366 2592 2734 2697 2428 1940 1173 686 609 529 408 0 0 0 0 0 0 0 0 0 0 0 0 0 0
1539 1504 1489 1468 1427 1346 1232 1260 1415 1520 1634 1932 2008 2026 2090 2102 2137 2309 2548 2692 2627 2368 1878 1139 798 775 698 608 122 0 0 0 0 0 0 0 0 0 0 0 0 0
1566 1535 1500 1487 1469 1423 1291 1211 1354 1518 1564 1756 1937 1959 2016 2059 2106 2234 2470 2614 2467 2187 1820 1215 938 975 940 740 439 60 0 0 0 0 0 0 0 0 0 0 0 0
1604 1559 1512 1471 1463 1482 1422 1257 1240 1390 1485 1483 1745 1886 1952 2021 2087 2188 2347 2434 2238 2014 1718 1227 981 998 1004 817 586 522 0 0 0 0 0 0 0 0 0 0 0 0
1630 1592 1538 1495 1455 1464 1514 1447 1315 1277 1320 1322 1523 1703 1848 1951 2026 2112 2195 2210 2050 1849 1605 1288 984 938 926 845 673 625 0 0 0 0 0 0 0 0 0 0 0 0
1657 1633 1591 1546 1495 1457 1513 1570 1530 1418 1332 1341 1430 1569 1712 1853 1938 1976 2015 1976 1821 1690 1520 1377 1213 981 881 870 820 646 0 0 0 0 0 0 0 0 0 0 0 0
1699 1685 1664 1617 1580 1527 1516 1552 1615 1593 1515 1452 1431 1503 1595 1708 1802 1842 1850 1793 1668 1570 1490 1421 1329 1155 941 896 877 726 0 0 0 0 0 0 0 0 0 0 0 0
1698 1717 1703 1680 1659 1640 1625 1590 1614 1641 1637 1562 1488 1506 1558 1619 1649 1686 1689 1664 1604 1521 1466 1426 1358 1256 998 880 830 731 432 0 0 0 0 0 0 0 0 0 0 0
1665 1695 1737 1746 1747 1756 1756 1717 1692 1704 1692 1665 1616 1564 1548 1591 1611 1635 1649 1628 1578 1515 1450 1389 1361 1298 1144 954 790 647 548 228 0 0 0 0 0 0 0 0 0 0
1630 1653 1723 1796 1817 1838 1862 1844 1815 1798 1797 1779 1751 1684 1613 1599 1611 1623 1636 1643 1598 1507 1418 1358 1340 1304 1234 1100 863 639 574 553 178 0 0 0 0 0 0 0 0 0
1721 1680 1692 1768 1848 1888 1917 1930 1926 1891 1868 1886 1868 1821 1763 1696 1690 1706 1724 1694 1593 1474 1397 1348 1336 1299 1245 1185 1029 760 614 614 616 300 0 0 0 0 39 0 127 145
1904 1832 1785 1792 1841 1902 1953 1986 2006 1986 1954 1959 1950 1931 1904 1872 1864 1852 1847 1767 1602 1443 1366 1343 1336 1326 1269 1207 1078 848 700 758 805 648 336 0 0 0 5 0 0 202
2054 2028 1968 1920 1916 1938 1965 2011 2048 2078 2052 2028 2016 2013 1984 1970 1953 1927 1864 1761 1626 1480 1400 1396 1410 1419 1390 1294 1167 927 804 843 878 739 540 538 538 45 0 246 286 272
2169 2175 2146 2110 2073 2041 2040 2048 2085 2131 2155 2133 2089 2081 2052 1998 1978 1908 1874 1766 1648 1577 1539 1520 1535 1544 1547 1456 1336 1220 1107 1000 916 844 734 690 665 592 270 302 365 448
2266 2279 2291 2282 2251 2222 2168 2136 2132 2153 2191 2203 2179 2148 2106 2082 2020 1948 1872 1786 1707 1653 1642 1647 1666 1690 1707 1649 1488 1400 1350 1257 1150 1036 953 890 820 640 594 572 665 778
2379 2394 2405 2403 2405 2378 2319 2268 2216 2195 2205 2232 2250 2221 2199 2158 2100 2036 1933 1855 1798 1753 1732 1740 1769 1800 1827 1802 1678 1524 1449 1384 1276 1193 1125 1068 971 1052 1049 992 952 830
2492 2498 2484 2505 2519 2494 2463 2408 2344 2285 2239 2241 2253 2277 2282 2242 2184 2130 2061 2006 1942 1910 1874 1857 1889 1895 1915 1896 1817 1708 1605 1517 1419 1334 1217 1365 1404 1350 1360 1419 1322 1034
2590 2589 2582 2594 2592 2594 2565 2517 2460 2399 2321 2266 2252 2269 2285 2293 2270 2222 2178 2140 2092 2066 2023 1981 1949 1961 1972 1973 1903 1832 1780 1732 1674 1606 1482 1497 1522 1523 1477 1475 1534 1335
2664 2660 2672 2674 2664 2653 2624 2585 2547 2490 2434 2349 2283 2249 2237 2254 2280 2252 2241 2218 2190 2166 2147 2141 2129 2066 2052 2021 1969 1922 1908 1874 1810 1770 1700 1698 1794 1842 1828 1844 1756 1642
2746 2744 2745 2743 2728 2700 2652 2630 2598 2580 2520 2436 2330 2244 2218 2226 2235 2246 2250 2257 2249 2235 2226 2216 2197 2176 2165 2108 2039 1995 1971 1953 1886 1990 2139 2198 2100 1981 1974 1939 1869 1716
2838 2817 2802 2786 2761 2722 2691 2680 2659 2622 2579 2497 2399 2307 2255 2249 2248 2257 2270 2278 2293 2303 2308 2294 2284 2258 2250 2213 2165 2130 2117 2127 2400 2376 2391 2448 2305 2196 2162 2116 1967 1767
2905 2875 2860 2810 2759 2749 2744 2728 2700 2672 2623 2560 2483 2405 2320 2284 2292 2306 2336 2332 2336 2370 2376 2396 2381 2379 2373 2347 2306 2286 2264 2425 2664 2616 2621 2396 2482 2259 2213 2110 2010 1845
2934 2920 2891 2827 2779 2791 2795 2775 2752 2737 2685 2620 2560 2502 2422 2370 2368 2386 2407 2429 2444 2472 2481 2510 2508 2523 2532 2514 2487 2450 2372 2612 2340 2152 2057 2146 2244 2182 2297 2145 2032 1792
2908 2927 2901 2862 2844 2844 2833 2819 2806 2786 2754 2694 2659 2599 2550 2495 2442 2444 2488 2541 2576 2594 2627 2652 2681 2691 2692 2678 2638 2583 2528 2586 2306 2430 2360 2362 2373 2318 2331 2168 2006 1709
2778 2878 2910 2914 2916 2915 2884 2863 2845 2841 2807 2768 2734 2684 2637 2580 2536 2547 2577 2620 2667 2701 2757 2792 2786 2800 2785 2778 2762 2718 2875 2568 2600 2663 2577 2380 2268 2176 2214 2119 2024 1640
2737 2858 2912 2947 2959 2962 2946 2932 2899 2868 2866 2828 2805 2773 2731 2668 2646 2616 2635 2685 2741 2797 2863 2902 2895 2912 2906 2891 2898 3044 3264 3283 3200 2901 2695 2525 2253 2100 2160 2164 1890 1538
Wind_Speed
10 10 11 13 13 13 13 12 11 10 11 13 14 14 14 13 12 10 10 10 11 11 12 12 13 14 16 17 nan nan nan nan nan nan nan nan nan nan nan nan nan nan
12 12 13 15 15 16 15 15 13 12 12 13 14 15 14 14 12 10 10 10 11 11 12 12 13 14 16 17 20 nan nan nan nan nan nan nan nan nan nan nan nan nan
14 14 15 16 17 18 18 18 16 13 13 14 15 15 15 15 13 10 9 10 11 11 12 13 13 14 16 18 21 nan nan nan nan nan nan nan nan nan nan nan nan nan
14 15 16 17 19 20 21 21 19 16 14 14 15 16 16 15 13 11 9 9 9 10 12 13 14 14 16 18 20 21 nan nan nan nan nan nan nan nan nan nan nan nan
17 17 17 19 21 23 23 21 20 19 16 15 17 18 17 15 13 11 9 9 9 10 11 13 14 15 17 18 20 20 nan nan nan nan nan nan nan nan nan nan nan nan
18 19 20 21 22 24 23 21 21 21 18 18 18 19 17 15 13 11 10 9 9 10 11 12 14 15 18 19 20 21 nan nan nan nan nan nan nan nan nan nan nan nan
19 21 22 23 23 23 22 21 22 22 20 19 20 18 18 15 12 10 9 9 10 11 12 13 14 16 17 19 20 22 nan nan nan nan nan nan nan nan nan nan nan nan
18 20 22 23 23 23 22 22 22 22 22 21 18 17 18 15 13 11 9 9 10 11 12 13 14 16 18 19 21 23 25 nan nan nan nan nan nan nan nan nan nan nan
18 19 20 21 22 22 21 21 21 21 22 19 16 17 17 15 14 11 10 9 9 10 12 13 15 16 18 20 21 24 26 27 nan nan nan nan nan nan nan nan nan nan
18 18 19 19 19 19 19 19 20 20 19 17 16 18 17 16 15 12 10 9 9 11 12 13 15 17 18 19 22 24 26 28 29 nan nan nan nan nan nan nan nan nan
19 18 18 17 16 16 16 18 18 18 18 17 18 17 17 18 16 12 10 10 10 11 12 13 15 18 19 20 21 23 26 28 29 31 nan nan nan nan nan nan 32 29
19 19 17 16 14 14 15 17 17 17 18 18 18 17 18 18 15 12 10 9 9 10 11 13 15 18 20 21 23 25 26 27 29 31 33 nan nan nan nan nan nan 31
20 18 17 15 13 13 16 17 16 16 17 17 18 18 18 17 14 11 11 11 10 9 10 12 15 17 20 22 23 25 27 28 29 31 33 34 35 nan nan 35 34 33
20 19 17 16 15 15 16 16 16 16 16 18 20 18 17 16 13 12 12 12 10 9 9 11 14 17 20 22 24 26 28 29 31 32 33 34 35 35 35 36 35 34
22 21 19 18 18 17 17 16 16 16 18 19 19 18 19 16 15 14 14 12 10 9 9 11 14 17 20 23 25 26 28 31 33 34 35 36 36 36 36 36 35 34
23 23 22 22 21 18 17 17 17 18 19 19 18 19 19 18 17 15 12 11 11 10 10 12 14 16 20 28 30 29 30 31 33 34 36 38 39 40 40 38 37 34
25 25 25 24 23 21 20 19 19 19 20 19 19 20 19 19 17 14 12 12 11 11 11 12 14 16 24 29 33 35 32 32 34 36 39 41 43 44 43 41 37 35
27 27 27 26 26 24 23 21 21 21 21 21 21 21 20 20 17 14 13 13 12 12 12 13 14 19 27 31 34 35 35 33 34 36 38 42 44 45 43 39 36 35
29 29 28 28 27 27 26 24 23 22 21 22 21 22 24 20 16 16 14 14 13 13 12 14 15 21 28 32 34 35 37 37 34 35 37 40 43 43 40 35 32 32
30 31 30 30 30 29 29 27 24 21 21 23 26 27 23 19 18 15 15 15 14 14 14 15 16 22 29 33 35 36 37 38 34 35 37 39 40 39 36 34 34 35
30 32 32 33 34 32 30 29 27 23 23 25 28 26 22 20 19 17 16 16 15 15 15 16 16 25 30 34 36 36 37 38 33 32 34 37 37 36 36 37 37 37
31 32 34 36 37 35 32 30 30 27 24 26 28 27 24 23 22 19 17 17 17 17 17 16 18 28 32 35 36 36 37 34 32 31 33 35 36 36 37 38 40 42
32 33 35 38 38 37 34 32 32 29 25 27 28 27 26 24 21 21 21 20 19 19 18 18 19 28 34 36 36 36 34 32 33 33 34 36 37 38 39 41 44 46
35 35 36 37 37 36 35 32 32 31 28 28 28 28 26 24 24 24 24 22 22 20 20 21 21 28 35 37 36 36 37 37 37 37 36 37 37 39 42 43 47 53
37 38 37 35 33 33 34 33 32 32 31 29 27 28 27 28 28 27 26 26 23 22 23 24 24 30 36 38 36 36 38 38 37 38 38 39 41 41 42 45 47 51
35 36 35 32 30 30 33 33 34 35 34 31 29 29 30 31 30 29 29 28 26 25 27 26 27 31 34 38 36 38 43 42 40 41 40 42 43 45 47 47 49 51
Wind_Direction
296 288 289 284 283 279 280 284 284 293 296 295 302 311 318 321 315 324 329 330 341 350 358 356 347 343 347 345 nan nan nan nan nan nan nan nan nan nan nan nan nan nan
291 286 277 277 277 276 274 275 280 289 294 295 300 304 306 304 313 318 325 332 340 351 351 348 346 345 344 342 342 nan nan nan nan nan nan nan nan nan nan nan nan nan
285 281 281 282 280 282 281 276 278 282 285 293 295 294 297 300 307 312 319 330 340 344 343 344 344 344 343 341 340 nan nan nan nan nan nan nan nan nan nan nan nan nan
284 282 279 278 276 278 278 278 279 279 276 278 287 289 291 294 300 308 314 329 334 335 337 336 340 340 339 340 338 345 nan nan nan nan nan nan nan nan nan nan nan nan
285 277 270 270 271 273 275 281 285 283 283 283 279 282 287 290 294 299 307 321 324 328 329 334 332 335 337 337 338 344 nan nan nan nan nan nan nan nan nan nan nan nan
281 278 275 274 274 276 278 282 283 283 282 278 283 281 284 289 288 292 303 316 319 326 327 327 331 334 334 336 336 343 nan nan nan nan nan nan nan nan nan nan nan nan
290 281 279 274 276 279 280 280 279 280 280 277 272 279 281 285 283 286 297 310 318 325 327 326 330 334 331 333 337 342 nan nan nan nan nan nan nan nan nan nan nan nan
297 286 281 277 280 280 282 280 279 279 277 272 275 277 278 281 280 276 285 303 316 326 325 326 329 332 331 333 337 341 344 nan nan nan nan nan nan nan nan nan nan nan
301 294 288 287 286 283 285 284 280 277 273 274 271 267 270 272 271 275 285 299 314 318 321 327 330 329 330 333 337 340 344 344 nan nan nan nan nan nan nan nan nan nan
312 305 302 299 297 289 291 287 280 275 272 270 265 262 268 263 263 272 281 297 312 313 320 329 327 326 328 332 337 339 342 347 348 nan nan nan nan nan nan nan nan nan
318 312 314 315 309 292 292 286 281 276 268 267 262 262 260 255 256 264 277 291 302 311 321 328 326 323 326 331 334 337 342 346 349 352 nan nan nan nan nan nan 347 346
319 317 324 324 312 297 291 286 282 277 271 263 260 258 252 250 257 262 270 283 290 303 316 321 318 320 327 333 336 337 340 344 348 352 354 nan nan nan nan nan nan 346
322 320 315 311 303 292 279 278 282 280 273 264 256 249 247 249 255 263 262 268 281 294 310 314 315 318 324 332 336 338 342 346 348 350 351 351 350 nan nan 348 348 345
324 314 305 301 291 284 281 281 280 275 268 256 248 247 247 253 259 261 256 259 275 291 299 301 311 317 325 331 335 339 343 347 348 348 350 349 348 347 346 347 348 347
313 306 301 295 291 286 287 286 282 272 261 252 248 246 245 252 254 255 258 266 274 284 292 300 311 319 323 329 334 340 344 347 347 347 347 347 346 345 344 344 344 345
306 307 306 302 296 292 288 284 277 268 260 256 253 250 249 251 252 255 263 274 278 280 287 299 311 313 329 340 339 340 344 345 344 345 344 343 342 340 339 339 341 341
301 305 305 308 306 295 283 280 279 270 262 259 255 253 255 255 254 260 268 268 274 280 294 304 310 316 335 336 340 344 343 344 345 345 342 340 337 335 334 335 334 337
301 302 303 307 304 302 295 285 276 271 266 262 260 261 259 256 257 264 266 264 263 278 296 307 314 327 332 334 336 343 346 346 344 343 340 337 335 333 329 327 330 332
297 298 301 302 303 300 292 286 283 278 274 269 270 266 258 257 260 262 262 263 271 287 302 309 314 326 330 331 334 342 350 349 342 341 337 335 335 337 336 332 329 330
295 297 299 301 297 290 287 290 294 294 285 273 265 262 261 259 260 266 262 267 278 290 299 303 315 320 328 329 334 342 349 348 342 338 337 335 337 341 344 340 333 331
293 296 299 297 293 289 288 295 301 300 291 276 269 270 268 262 261 262 261 269 280 287 291 301 310 318 324 328 333 342 350 345 339 334 333 333 334 339 342 340 335 332
292 294 294 291 291 291 293 300 302 302 298 284 274 268 261 254 252 256 263 271 278 285 291 301 305 315 323 326 333 342 348 333 331 328 327 329 332 334 336 335 332 329
287 290 289 289 290 293 298 301 301 300 296 285 280 274 267 263 262 264 264 271 279 284 295 301 300 310 320 323 330 343 334 324 316 316 327 330 329 328 330 331 329 329
285 285 285 285 287 294 298 297 295 291 293 288 287 280 271 265 262 260 263 268 276 286 294 296 297 302 316 319 330 338 330 317 314 320 324 322 325 325 326 329 330 333
284 282 280 280 284 289 289 290 290 291 286 281 281 277 269 260 258 260 262 265 273 283 293 296 293 296 313 318 329 333 323 314 314 317 321 322 322 323 325 327 325 326
277 277 276 275 278 280 281 283 278 277 279 280 278 274 266 259 258 259 263 265 270 277 279 288 292 291 306 317 324 326 322 314 313 316 321 322 323 324 323 321 320 318